Wind_Speed
19 19 19 20 20 21 21 22 23 23 23 25 25 26 27 27 28 27 28 28 29 29 29 30 29 30 31 31 31 31 31 31 31 30 30 31 30 31 31 32 32 31 31
19 19 21 21 21 22 22 23 23 24 24 25 26 26 28 28 28 27 28 29 29 29 30 29 29 30 30 31 30 30 30 30 30 30 30 30 29 29 30 31 32 31 31
19 19 19 20 21 22 23 23 24 25 25 26 27 27 27 27 28 28 28 29 30 30 29 29 29 29 30 29 29 29 29 29 29 29 29 28 28 28 29 29 30 30 30
19 19 19 19 21 22 23 24 24 25 24 25 26 27 27 27 28 28 28 29 29 28 28 29 29 29 29 29 28 28 28 28 28 28 27 27 26 26 26 27 28 29 29
19 20 20 21 22 23 24 25 25 25 25 25 26 28 28 28 27 27 28 28 27 27 28 28 28 28 28 28 28 27 26 26 26 25 25 24 24 24 24 24 26 26 27
20 21 21 22 22 23 24 24 25 25 26 26 26 27 28 27 27 27 27 27 27 27 26 27 27 27 27 28 27 26 25 25 25 24 24 23 23 23 23 22 22 24 25
18 20 21 21 22 23 23 24 25 25 25 24 25 26 26 26 26 26 27 27 26 26 26 26 26 26 26 26 26 26 26 26 25 24 24 23 22 22 21 20 21 22 22
17 19 19 19 20 21 22 23 24 23 23 23 24 25 25 25 25 26 26 26 25 25 25 25 25 25 25 25 25 25 26 25 25 24 23 22 20 19 19 19 20 20 20
17 18 18 19 20 21 22 22 22 21 22 22 22 23 23 23 24 24 25 25 24 23 23 24 24 23 24 24 24 23 23 22 22 22 22 20 19 18 18 19 19 20 19
18 19 18 19 19 19 19 19 18 20 21 21 21 22 22 22 23 23 24 23 23 22 22 22 22 22 22 22 22 21 20 20 20 19 19 19 19 18 18 18 18 18 18
17 17 17 18 18 18 17 16 17 19 20 20 21 20 20 20 21 21 22 22 22 22 20 20 20 20 20 20 18 18 19 19 18 18 18 17 17 17 17 17 17 17 17
18 18 17 17 17 17 17 17 17 18 19 19 20 19 18 19 20 21 21 21 21 21 20 19 19 18 18 18 17 17 17 17 16 16 16 16 16 16 16 16 16 16 16
18 17 16 17 17 17 17 17 18 19 19 19 19 19 18 18 19 20 21 21 20 19 18 18 18 18 18 18 17 16 16 16 16 16 16 15 16 16 15 15 16 16 16
19 18 17 17 17 17 17 18 18 18 18 18 19 18 18 18 19 20 20 20 19 18 17 17 18 18 17 17 16 16 16 16 16 16 15 15 16 15 15 15 15 16 16
19 18 18 18 18 18 18 18 18 17 18 18 18 18 18 18 18 19 19 19 18 17 16 16 17 17 17 16 16 16 16 16 15 15 15 15 15 15 15 15 16 16 16
18 18 18 17 17 18 18 17 17 17 17 18 17 17 18 18 19 18 18 18 17 16 15 16 16 16 16 15 15 15 15 16 15 15 15 15 15 15 14 15 15 16 16
18 18 18 18 19 18 18 18 17 17 17 17 17 17 18 18 18 18 18 17 16 16 16 16 16 16 16 16 15 15 15 14 14 14 14 14 14 13 14 14 15 16 17
18 17 17 17 16 16 17 17 17 16 16 16 16 16 17 17 18 18 17 16 16 16 17 16 16 16 16 16 15 15 14 14 14 14 14 13 13 12 13 13 13 14 15
16 16 16 16 16 16 16 16 16 15 15 14 14 15 16 16 17 16 16 16 16 16 16 16 15 15 15 15 15 14 13 12 12 12 12 12 12 12 13 13 12 12 13
16 15 15 15 15 15 14 14 14 13 13 13 14 14 15 15 16 16 15 15 15 15 15 15 15 15 14 14 14 13 12 11 11 11 11 11 12 12 12 12 12 12 13
15 15 14 15 15 13 12 12 13 13 13 13 13 14 14 14 14 14 14 15 15 14 15 15 15 14 14 14 13 12 11 11 11 11 11 12 12 13 13 12 12 12 12
14 13 13 13 13 12 11 11 12 12 12 11 11 11 11 12 13 13 13 14 14 14 14 14 14 14 14 13 12 12 12 12 12 12 12 13 13 13 13 13 13 13 13
13 12 11 11 11 11 10 10 11 11 10 10 10 10 10 12 12 12 13 14 14 14 14 14 14 14 14 13 13 13 13 14 14 14 14 14 14 14 13 14 13 13 13
12 11 10 11 11 11 10 11 11 10 9 8 8 9 10 11 11 11 12 13 14 14 14 14 14 14 14 14 13 13 14 14 14 14 14 14 14 14 14 14 15 15 15
12 11 10 10 10 9 9 9 9 8 7 7 7 8 9 10 10 11 12 12 13 14 14 14 14 14 14 14 14 14 14 14 15 14 14 14 15 16 16 16 16 16 16
11 11 9 9 8 7 7 7 6 6 5 6 6 7 8 9 10 10 11 13 14 14 15 15 15 15 15 15 15 15 15 15 16 16 15 15 16 17 17 17 18 18 17
Wind_Direction
282 283 283 285 287 288 288 290 289 290 290 290 291 290 289 291 293 293 293 295 295 293 292 290 289 289 289 289 289 288 287 286 285 284 282 279 276 273 272 271 270 269 266
281 284 284 285 286 288 289 288 289 291 291 292 292 290 290 290 292 294 294 295 295 293 292 291 290 291 291 291 291 289 287 286 286 286 284 281 277 274 272 271 270 269 268
285 286 288 288 286 287 289 292 291 291 292 293 292 290 290 290 292 294 294 296 296 295 294 292 292 293 293 291 292 290 288 287 286 287 286 283 278 274 274 272 271 269 267
284 288 291 291 290 290 291 292 293 294 295 295 294 292 292 293 293 294 295 295 295 295 294 295 293 293 293 292 292 292 290 288 287 288 287 285 282 277 278 274 272 270 266
283 287 290 292 291 292 292 293 292 294 294 295 294 295 294 293 294 296 296 296 295 296 296 295 293 293 292 291 292 292 290 289 289 289 288 287 286 281 279 277 274 271 268
286 289 291 292 291 294 294 294 294 294 293 295 296 297 295 293 295 297 296 296 296 296 296 295 295 294 292 291 290 290 289 289 289 289 288 286 284 280 278 277 273 272 272
289 291 292 294 294 298 298 297 300 297 297 297 297 297 294 294 296 296 298 297 296 295 294 295 295 294 293 290 288 288 287 288 288 288 287 285 284 280 276 275 273 273 272
291 293 294 296 299 300 299 300 302 300 301 299 298 296 295 296 297 298 299 298 296 296 296 296 296 295 294 291 289 289 289 287 286 285 285 284 283 281 276 272 274 274 272
293 293 296 299 301 302 301 301 301 302 304 303 302 301 300 301 302 302 302 300 298 297 297 297 297 298 298 294 292 292 291 290 290 288 285 283 282 279 276 273 274 274 272
293 293 295 298 301 304 305 305 304 304 304 304 306 305 304 305 306 307 305 302 301 302 302 302 302 304 305 303 298 296 295 294 292 290 289 287 285 276 274 274 275 274 276
293 294 296 299 303 306 308 307 306 307 306 307 309 308 308 310 311 312 312 309 307 305 306 305 307 309 309 308 304 300 299 296 294 292 289 287 286 280 277 279 277 275 275
296 293 296 299 303 305 307 307 307 309 310 312 315 314 314 314 316 318 319 316 311 307 305 305 307 309 310 309 307 305 303 299 297 295 293 291 288 282 279 278 278 278 278
295 292 295 299 302 304 305 305 306 309 310 312 314 316 316 316 319 322 324 322 319 314 310 309 311 312 311 310 309 307 305 302 299 296 295 294 292 284 281 279 281 280 279
293 292 294 299 301 303 303 304 305 306 309 310 312 315 315 315 320 324 324 325 324 319 314 313 314 314 313 312 311 309 306 306 303 301 299 298 295 285 283 282 284 283 281
290 292 294 298 299 301 302 303 304 305 309 310 313 315 318 320 322 325 325 325 324 320 317 318 320 319 317 313 309 307 307 306 305 305 303 301 295 289 286 287 286 285 284
289 292 292 296 300 301 301 303 304 304 307 309 314 318 321 324 324 324 323 325 327 326 324 324 324 322 321 318 314 309 306 306 305 304 302 301 297 293 289 288 287 287 287
289 290 292 295 299 299 299 301 304 305 308 309 314 318 322 324 325 323 324 326 327 328 327 324 324 323 322 319 316 313 311 314 312 309 306 304 302 298 293 291 290 290 289
290 291 292 297 300 299 298 300 301 303 306 309 312 316 319 322 323 324 325 324 324 323 324 322 320 321 322 321 319 316 317 315 313 313 312 311 309 303 299 297 296 295 292
291 293 292 293 297 300 299 299 298 299 304 308 311 315 319 322 324 324 326 326 325 324 325 325 323 324 324 325 325 324 322 320 320 320 317 315 313 310 306 302 297 295 294
290 289 289 291 295 298 298 299 298 299 304 309 311 315 319 322 326 328 330 330 330 329 329 328 328 326 326 328 330 330 328 324 322 321 320 320 318 318 316 311 305 300 296
287 286 286 289 292 295 299 299 296 296 300 307 311 314 319 323 327 330 332 333 334 334 334 335 333 333 333 333 334 333 333 332 330 329 326 322 321 320 316 312 308 305 302
283 283 287 290 291 293 297 301 298 296 301 309 313 316 321 326 329 332 335 338 338 338 339 339 340 340 340 340 340 338 333 332 332 330 328 326 324 323 320 316 314 312 309
277 277 284 286 284 287 290 299 301 297 298 307 315 319 324 326 328 332 337 342 343 344 344 345 344 344 344 341 339 339 337 334 330 328 326 324 324 323 321 319 315 312 309
272 273 279 283 283 284 287 293 300 293 295 304 313 322 325 327 329 333 337 341 343 343 343 344 346 346 345 343 341 340 338 337 334 329 326 325 324 323 321 317 312 310 306
266 269 272 275 281 283 291 295 296 293 298 305 315 323 329 333 335 337 341 345 346 347 346 345 344 344 342 341 341 339 338 337 334 330 329 327 324 322 321 318 315 312 309
264 269 269 271 275 282 297 303 304 301 311 318 324 331 335 337 339 339 343 346 347 348 348 347 346 343 341 340 340 338 336 335 334 331 327 324 323 322 321 318 316 313 311
Height
5844 5843 5842 5841 5840 5838 5837 5835 5834 5833 5831 5829 5827 5825 5824 5822 5819 5817 5815 5812 5809 5807 5804 5802 5799 5797 5794 5792 5789 5787 5785 5782 5781 5779 5778 5776 5775 5774 5774 5774 5773 5773 5774
5840 5839 5838 5837 5835 5834 5832 5830 5829 5827 5826 5824 5822 5820 5818 5816 5813 5810 5808 5805 5803 5800 5797 5794 5792 5789 5787 5784 5781 5779 5777 5774 5772 5771 5769 5768 5767 5765 5765 5765 5765 5765 5765
5835 5835 5834 5832 5831 5829 5828 5826 5824 5822 5820 5818 5816 5813 5811 5809 5807 5804 5801 5799 5796 5793 5790 5787 5785 5782 5779 5776 5773 5771 5768 5766 5764 5762 5761 5759 5758 5758 5758 5757 5757 5757 5757
5831 5830 5829 5828 5826 5824 5822 5820 5818 5816 5814 5812 5810 5807 5805 5803 5800 5798 5795 5792 5789 5786 5783 5780 5777 5774 5772 5769 5766 5763 5761 5759 5757 5755 5753 5752 5750 5750 5750 5750 5749 5749 5749
5827 5826 5825 5823 5821 5818 5817 5815 5812 5810 5808 5806 5804 5801 5798 5796 5794 5791 5788 5785 5782 5779 5776 5773 5770 5767 5764 5762 5759 5756 5754 5752 5750 5748 5746 5745 5744 5743 5743 5743 5742 5741 5741
5823 5821 5820 5818 5816 5813 5811 5809 5807 5805 5802 5800 5797 5794 5792 5789 5787 5784 5781 5778 5775 5772 5769 5766 5763 5760 5757 5755 5752 5750 5747 5745 5743 5741 5740 5739 5738 5737 5737 5736 5736 5735 5734
5819 5817 5815 5813 5811 5809 5806 5804 5801 5799 5796 5793 5791 5788 5785 5782 5780 5777 5774 5771 5768 5765 5762 5759 5756 5753 5750 5747 5745 5743 5741 5739 5737 5735 5734 5732 5731 5731 5730 5730 5730 5729 5728
5815 5813 5811 5808 5806 5804 5801 5798 5796 5793 5790 5788 5785 5782 5779 5776 5773 5771 5767 5764 5761 5758 5755 5752 5749 5746 5743 5741 5738 5736 5734 5732 5730 5729 5728 5726 5725 5725 5725 5725 5724 5724 5723
5810 5809 5806 5804 5802 5799 5796 5793 5791 5788 5785 5782 5780 5777 5774 5771 5767 5764 5761 5758 5755 5752 5749 5746 5743 5740 5737 5734 5732 5729 5727 5726 5724 5723 5722 5721 5720 5719 5719 5719 5719 5719 5718
5806 5804 5802 5800 5797 5794 5791 5788 5786 5784 5780 5778 5774 5772 5769 5766 5762 5759 5756 5752 5748 5745 5743 5740 5738 5735 5732 5728 5726 5724 5722 5721 5719 5718 5717 5716 5715 5714 5714 5714 5714 5713 5713
5801 5799 5797 5795 5793 5790 5788 5785 5782 5780 5777 5774 5770 5767 5764 5761 5758 5754 5750 5747 5743 5740 5738 5735 5733 5730 5727 5724 5721 5719 5718 5716 5715 5713 5712 5711 5710 5710 5710 5709 5709 5708 5708
5796 5795 5793 5791 5789 5786 5783 5781 5778 5776 5773 5769 5766 5763 5760 5757 5754 5750 5746 5742 5739 5735 5733 5731 5729 5726 5723 5720 5717 5716 5714 5712 5711 5709 5708 5707 5706 5705 5705 5705 5704 5704 5703
5792 5790 5789 5787 5784 5782 5779 5776 5774 5772 5769 5766 5763 5760 5757 5754 5750 5747 5743 5739 5735 5732 5729 5727 5725 5722 5719 5717 5714 5713 5711 5709 5707 5706 5704 5703 5702 5702 5701 5700 5700 5699 5699
5787 5786 5784 5783 5780 5778 5775 5772 5770 5767 5765 5762 5759 5757 5754 5751 5748 5744 5740 5736 5733 5729 5727 5724 5722 5719 5716 5714 5712 5710 5708 5706 5704 5703 5701 5700 5699 5698 5697 5696 5696 5695 5695
5782 5781 5780 5778 5776 5773 5771 5768 5765 5763 5761 5759 5756 5753 5750 5748 5744 5741 5738 5734 5730 5727 5724 5722 5719 5716 5713 5711 5709 5706 5705 5703 5701 5699 5698 5697 5695 5694 5693 5692 5692 5691 5690
5777 5776 5775 5773 5771 5769 5767 5764 5762 5760 5758 5756 5753 5750 5748 5745 5742 5739 5735 5732 5728 5725 5722 5720 5717 5714 5711 5708 5706 5703 5701 5700 5698 5696 5695 5694 5692 5691 5690 5689 5688 5687 5686
5772 5771 5770 5768 5766 5764 5763 5761 5759 5756 5754 5752 5750 5748 5745 5742 5739 5736 5733 5729 5726 5723 5720 5718 5715 5712 5709 5706 5703 5701 5699 5697 5695 5693 5692 5690 5689 5687 5686 5685 5684 5683 5682
5766 5765 5764 5763 5761 5759 5758 5757 5755 5753 5751 5749 5747 5744 5742 5739 5736 5733 5730 5727 5724 5721 5718 5715 5713 5710 5707 5704 5701 5699 5696 5694 5692 5691 5689 5687 5686 5684 5683 5682 5681 5679 5678
5761 5760 5759 5758 5756 5755 5754 5752 5751 5749 5747 5745 5743 5741 5739 5737 5734 5731 5728 5725 5722 5719 5716 5713 5710 5707 5704 5702 5699 5696 5694 5692 5690 5689 5687 5685 5684 5682 5680 5679 5678 5677 5675
5756 5755 5754 5753 5752 5751 5749 5748 5747 5746 5744 5742 5740 5739 5737 5734 5732 5729 5726 5723 5720 5717 5714 5711 5708 5705 5703 5700 5697 5695 5693 5691 5689 5687 5685 5683 5681 5680 5678 5676 5675 5674 5673
5751 5750 5750 5749 5748 5746 5745 5745 5744 5742 5741 5739 5738 5736 5734 5732 5730 5727 5725 5722 5719 5716 5713 5710 5707 5704 5701 5698 5696 5693 5691 5689 5687 5686 5683 5681 5679 5677 5675 5674 5672 5671 5670
5746 5746 5745 5745 5744 5742 5742 5741 5740 5738 5737 5736 5735 5734 5732 5730 5728 5726 5723 5720 5717 5714 5711 5708 5705 5703 5700 5697 5694 5692 5690 5688 5686 5684 5682 5679 5677 5675 5673 5671 5670 5668 5667
5742 5742 5741 5741 5740 5739 5738 5737 5736 5735 5735 5734 5733 5731 5730 5728 5726 5724 5722 5719 5716 5713 5710 5707 5704 5701 5699 5696 5693 5691 5688 5686 5684 5682 5680 5677 5675 5673 5671 5669 5667 5665 5664
5737 5737 5737 5737 5736 5735 5734 5734 5733 5732 5732 5731 5730 5729 5728 5726 5724 5722 5720 5718 5715 5712 5709 5706 5703 5700 5698 5695 5692 5690 5687 5685 5682 5680 5678 5675 5673 5670 5668 5666 5664 5662 5660
5733 5733 5733 5732 5732 5732 5731 5730 5730 5729 5729 5729 5728 5727 5726 5724 5723 5721 5719 5716 5714 5711 5708 5705 5702 5699 5697 5694 5691 5688 5686 5683 5681 5678 5675 5673 5670 5667 5665 5662 5660 5658 5656
5728 5729 5729 5729 5729 5729 5729 5728 5728 5727 5727 5726 5726 5725 5724 5723 5721 5720 5718 5715 5713 5710 5707 5704 5700 5697 5695 5692 5689 5686 5684 5681 5679 5676 5673 5670 5667 5664 5661 5659 5656 5654 5652